WJ9H Weather Reports


time (UTC)temp
C
wind
direction
speed
KPH
gust
KPH
rain 1hr
cm
rain 24hr
cm
rain mn
cm
humidity
%
barometer
mb
20260906160317 24 58 9.7 14.5 0.00 0.03 0.03 1020.7
20260906160035 25 49 8.0 14.5 0.00 0.03 0.03 1020.7
20260906155911 24 58 9.7 14.5 0.00 0.03 0.03 1020.7
20260906154346 26 62 4.8 11.3 0.00 0.03 0.03 1020.7
20260906154035 26 38 8.0 11.3 0.00 0.03 0.03 1021.0
20260906153952 26 62 4.8 11.3 0.00 0.03 0.03 1020.7
20260906152905 27 167 3.2 11.3 0.00 0.03 0.03 1020.7
20260906152035 27 136 6.4 11.3 0.00 0.03 0.03 1020.7
20260906150431 24 60 6.4 9.7 0.00 0.03 0.03 1020.7
20260906150034 25 76 6.4 9.7 0.00 0.03 0.03 1020.7
20260906145911 24 60 6.4 9.7 0.00 0.03 0.03 1020.7
20260906145145 25 25 6.4 11.3 0.00 0.03 0.03 1020.7
20260906144859 25 25 6.4 11.3 0.00 0.03 0.03 1020.7
20260906144251 24 68 6.4 11.3 0.00 0.03 0.03 1020.7
20260906144033 24 76 6.4 11.3 0.00 0.03 0.03 1020.7
20260906143905 24 68 6.4 11.3 0.00 0.03 0.03 1020.7
20260906142228 23 70 8.0 11.3 0.00 0.03 0.03 1020.4
20260906142035 23 39 8.0 12.9 0.00 0.03 0.03 1020.4
20260906141911 23 70 8.0 11.3 0.00 0.03 0.03 1020.4
20260906141408 22 66 6.4 9.7 0.03 0.03 0.03 1020.7
20260906140159 22 66 6.4 9.7 0.03 0.03 0.03 1020.7
20260906140035 22 52 8.0 11.3 0.03 0.03 0.03 1020.7
20260906135932 22 66 6.4 9.7 0.03 0.03 0.03 1020.7
20260906134035 22 60 6.4 9.7 0.03 0.03 0.03 1020.7
20260906132035 20 49 3.2 9.7 0.03 0.03 0.03 1020.7
20260906130034 17 13 6.4 11.3 0.00 0.03 0.00 1020.4
20260906125102 17 1 8.0 9.7 0.00 0.03 0.00 1020.0
20260906124905 17 1 8.0 9.7 0.00 0.03 0.00 1020.0
20260906124034 17 13 3.2 8.0 0.00 0.03 0.00 1020.0
20260906122118 16 0 1.6 8.0 0.00 0.03 0.00 1020.0
20260906122034 16 52 3.2 8.0 0.00 0.03 0.00 1020.0
20260906121901 16 0 1.6 8.0 0.00 0.03 0.00 1020.0
20260906121105 16 339 0.0 0.0 0.00 0.03 0.00 1020.0
20260906120859 16 339 0.0 0.0 0.00 0.03 0.00 1020.0
20260906120033 16 339 0.0 6.4 0.00 0.03 0.00 1020.0
20260906114035 16 14 3.2 4.8 0.00 0.03 0.00 1019.7
20260906113902 16 11 3.2 4.8 0.00 0.03 0.00 1019.7
20260906113146 16 328 0.0 0.0 0.00 0.03 0.00 1019.3
20260906112904 16 328 0.0 0.0 0.00 0.03 0.00 1019.3
20260906112035 16 328 0.0 3.2 0.00 0.03 0.00 1019.7
20260906111107 16 62 0.0 0.0 0.00 0.03 0.00 1019.7
20260906110902 16 62 0.0 0.0 0.00 0.03 0.00 1019.7
20260906110056 16 62 0.0 0.0 0.00 0.03 0.00 1019.3
20260906110035 16 62 0.0 0.0 0.00 0.03 0.00 1019.3
20260906105901 16 62 0.0 0.0 0.00 0.03 0.00 1019.3
20260906104903 16 62 0.0 0.0 0.00 0.03 0.00 1019.3
20260906104116 16 62 0.0 0.0 0.00 0.03 0.00 1019.0
20260906104034 16 62 0.0 0.0 0.00 0.03 0.00 1019.0
20260906103900 16 62 0.0 0.0 0.00 0.03 0.00 1019.0
20260906102900 16 62 0.0 1.6 0.00 0.03 0.00 1019.0
20260906102117 17 49 0.0 8.0 0.00 0.03 0.00 1018.7
20260906102033 16 52 0.0 8.0 0.00 0.03 0.00 1018.7
20260906101859 17 49 0.0 8.0 0.00 0.03 0.00 1018.7
20260906100902 17 42 0.0 9.7 0.00 0.03 0.00 1018.7
20260906100035 17 48 3.2 9.7 0.00 0.03 0.00 1018.7
20260906095902 17 56 0.0 3.2 0.00 0.03 0.00 1018.7
20260906095041 17 18 0.0 4.8 0.00 0.03 0.00 1019.0
20260906094901 17 18 0.0 4.8 0.00 0.03 0.00 1019.0
20260906094035 17 45 0.0 0.0 0.00 0.03 0.00 1019.0
20260906093901 16 45 0.0 0.0 0.00 0.03 0.00 1019.0
20260906092035 16 45 0.0 0.0 0.00 0.03 0.00 1019.0
20260906091901 16 45 0.0 0.0 0.00 0.03 0.00 1019.0
20260906091324 16 45 0.0 0.0 0.00 0.03 0.00 1019.0
20260906091238 16 45 0.0 0.0 0.00 0.03 0.00 1019.0
20260906090901 16 45 0.0 0.0 0.00 0.03 0.00 1019.0
20260906090136 16 45 0.0 0.0 0.00 0.03 0.00 1019.0
20260906090034 16 45 0.0 0.0 0.00 0.03 0.00 1019.0
20260906085901 16 45 0.0 0.0 0.00 0.03 0.00 1019.0
20260906085332 16 45 0.0 0.0 0.00 0.03 0.00 1019.0
20260906084900 16 45 0.0 0.0 0.00 0.03 0.00 1019.0
20260906084242 17 45 0.0 0.0 0.00 0.03 0.00 1019.0
20260906084035 17 45 0.0 0.0 0.00 0.03 0.00 1019.0
20260906083901 17 45 0.0 0.0 0.00 0.03 0.00 1019.0
20260906083203 17 45 0.0 0.0 0.00 0.03 0.00 1018.7
20260906082905 17 45 0.0 0.0 0.00 0.03 0.00 1018.7
20260906082242 17 45 0.0 0.0 0.00 0.03 0.00 1018.7
20260906082035 17 45 0.0 0.0 0.00 0.03 0.00 1018.7
20260906081941 17 45 0.0 0.0 0.00 0.03 0.00 1018.7
20260906081901 17 45 0.0 0.0 0.00 0.03 0.00 1018.7
20260906080901 17 45 1.6 4.8 0.00 0.03 0.00 1019.0
20260906080035 17 59 0.0 0.0 0.00 0.03 0.00 1018.7
20260906075904 17 59 0.0 0.0 0.00 0.03 0.00 1018.7
20260906075325 17 59 0.0 0.0 0.00 0.03 0.00 1018.7
20260906074900 17 59 0.0 0.0 0.00 0.03 0.00 1018.7
20260906074308 17 59 0.0 4.8 0.00 0.03 0.00 1018.7
20260906074035 17 59 0.0 4.8 0.00 0.03 0.00 1018.7
20260906073900 17 59 0.0 4.8 0.00 0.03 0.00 1018.7
20260906073211 17 34 1.6 4.8 0.00 0.03 0.00 1019.0
20260906072901 17 34 1.6 4.8 0.00 0.03 0.00 1019.0
20260906072034 17 55 1.6 4.8 0.00 0.03 0.00 1019.0
20260906070901 17 56 0.0 0.0 0.00 0.03 0.00 1019.0
20260906070034 17 56 0.0 0.0 0.00 0.03 0.00 1019.0
20260906065859 17 56 0.0 0.0 0.00 0.03 0.00 1019.0
20260906065056 17 56 0.0 0.0 0.00 0.03 0.00 1019.3
20260906064901 17 56 0.0 0.0 0.00 0.03 0.00 1019.3
20260906064128 17 56 0.0 0.0 0.00 0.03 0.00 1019.3
20260906064034 17 56 0.0 0.0 0.00 0.03 0.00 1019.0
20260906063901 17 56 0.0 0.0 0.00 0.03 0.00 1019.3
20260906062901 17 56 0.0 0.0 0.00 0.03 0.00 1019.3
20260906062111 18 56 0.0 0.0 0.00 0.03 0.00 1019.3
20260906062034 17 56 0.0 0.0 0.00 0.03 0.00 1019.3
20260906061900 18 56 0.0 0.0 0.00 0.03 0.00 1019.3
20260906060859 17 56 0.0 0.0 0.00 0.03 0.00 1019.3
20260906060035 18 56 0.0 0.0 0.00 0.03 0.00 1019.3
20260906055902 18 56 0.0 0.0 0.00 0.03 0.00 1019.3
20260906055149 18 56 0.0 0.0 0.00 0.03 0.00 1019.3
20260906054901 18 56 0.0 0.0 0.00 0.03 0.00 1019.3
20260906054035 18 56 0.0 0.0 0.00 0.03 0.00 1019.3
20260906053902 18 56 0.0 0.0 0.00 0.03 0.00 1019.3
20260906052901 18 56 0.0 0.0 0.00 0.03 0.00 1019.0
20260906052035 18 56 0.0 6.4 0.00 0.03 0.00 1019.0
20260906050901 18 34 4.8 11.3 0.00 0.03 0.00 1019.0
20260906050034 18 27 3.2 6.4 0.00 0.05 0.03 1019.0
20260906045901 18 21 4.8 6.4 0.00 0.05 0.03 1019.0
20260906045338 19 11 3.2 4.8 0.00 0.05 0.03 1019.0
20260906044900 19 11 3.2 4.8 0.00 0.05 0.03 1019.0
20260906044459 19 42 3.2 6.4 0.00 0.05 0.03 1019.0
20260906044034 19 23 3.2 6.4 0.00 0.05 0.03 1019.0
20260906043901 19 42 3.2 6.4 0.00 0.05 0.03 1019.0
20260906042034 19 13 4.8 8.0 0.00 0.05 0.03 1018.7
20260906041901 20 56 4.8 8.0 0.00 0.05 0.03 1018.7
20260906040901 20 14 4.8 8.0 0.00 0.05 0.03 1018.7
20260906040034 20 24 4.8 8.0 0.00 0.05 0.03 1018.7
20260906034034 20 59 4.8 8.0 0.00 0.05 0.03 1018.3
20260906033902 20 27 6.4 8.0 0.00 0.05 0.03 1018.3
20260906032859 20 49 4.8 9.7 0.00 0.05 0.03 1018.0
20260906032209 20 13 6.4 12.9 0.00 0.05 0.03 1018.0
20260906032033 20 55 6.4 12.9 0.00 0.05 0.03 1018.0
20260906031900 20 13 6.4 12.9 0.00 0.05 0.03 1018.0
20260906030902 20 15 8.0 11.3 0.00 0.05 0.03 1018.0
20260906030035 20 30 4.8 11.3 0.00 0.05 0.03 1018.0
20260906025902 20 34 4.8 11.3 0.00 0.05 0.03 1018.0
20260906024035 20 25 8.0 12.9 0.00 0.05 0.03 1017.3
20260906023900 20 10 8.0 12.9 0.00 0.05 0.03 1017.3
20260906022035 20 66 6.4 11.3 0.00 0.05 0.03 1017.3
20260906021903 20 49 6.4 11.3 0.00 0.05 0.03 1017.3
20260906020902 20 37 6.4 12.9 0.00 0.05 0.03 1017.3
20260906020034 21 49 8.0 12.9 0.00 0.05 0.03 1017.0
20260906015900 21 39 8.0 12.9 0.00 0.05 0.03 1017.0
20260906014900 21 37 8.0 14.5 0.00 0.05 0.03 1017.0
20260906014220 21 69 6.4 12.9 0.00 0.05 0.03 1016.6
20260906014035 21 46 6.4 12.9 0.00 0.05 0.03 1016.6
20260906013901 21 69 6.4 12.9 0.00 0.05 0.03 1016.6
20260906012902 21 53 8.0 12.9 0.00 0.05 0.03 1016.6
20260906012140 21 52 4.8 11.3 0.00 0.05 0.03 1016.6
20260906012035 21 42 6.4 11.3 0.00 0.05 0.03 1016.6
20260906011901 21 52 4.8 11.3 0.00 0.05 0.03 1016.6
20260906010902 21 14 6.4 14.5 0.00 0.05 0.03 1016.3
20260906010224 21 46 8.0 11.3 0.00 0.05 0.03 1016.3
20260906010035 21 42 9.7 11.3 0.00 0.05 0.03 1016.3
20260906005901 21 46 8.0 11.3 0.00 0.05 0.03 1016.3
20260906004904 21 56 6.4 12.9 0.00 0.05 0.03 1016.3
20260906004035 21 75 6.4 11.3 0.00 0.05 0.03 1016.3
20260906003901 21 11 8.0 11.3 0.00 0.05 0.03 1016.3
20260906002034 21 52 3.2 8.0 0.00 0.05 0.03 1016.6
20260906001901 21 72 4.8 8.0 0.00 0.05 0.03 1016.6
20260906001233 22 32 3.2 8.0 0.00 0.05 0.03 1016.6
20260906000900 22 32 3.2 8.0 0.00 0.05 0.03 1016.6
20260906000034 22 14 6.4 9.7 0.00 0.05 0.03 1016.6
20260905235901 22 10 6.4 9.7 0.00 0.05 0.03 1017.0
20260905234901 22 38 4.8 12.9 0.00 0.05 0.03 1016.6
20260905234348 22 41 8.0 11.3 0.00 0.05 0.03 1016.6
20260905234034 22 35 8.0 12.9 0.00 0.05 0.03 1016.6
20260905233859 22 41 8.0 11.3 0.00 0.05 0.03 1016.6
20260905232034 23 68 8.0 14.5 0.00 0.05 0.03 1017.0
20260905231236 23 58 8.0 14.5 0.00 0.05 0.03 1017.0
20260905230902 23 58 8.0 14.5 0.00 0.05 0.03 1017.0
20260905230033 23 63 11.3 16.1 0.00 0.05 0.03 1017.0
20260905225911 23 8 9.7 16.1 0.00 0.05 0.03 1017.0
20260905225429 23 39 8.0 16.1 0.00 0.05 0.03 1016.6
20260905224902 23 39 8.0 16.1 0.00 0.05 0.03 1016.6
20260905224035 23 27 11.3 16.1 0.00 0.05 0.03 1016.6
20260905223903 23 32 11.3 16.1 0.00 0.05 0.03 1016.6
20260905223237 23 20 9.7 14.5 0.00 0.05 0.03 1017.0
20260905222902 23 20 9.7 14.5 0.00 0.05 0.03 1017.0
20260905222035 24 37 6.4 14.5 0.00 0.05 0.03 1017.0
20260905220626 24 352 6.4 16.1 0.00 0.05 0.03 1017.0
20260905220034 24 7 8.0 16.1 0.00 0.05 0.03 1017.0
20260905215907 24 352 6.4 16.1 0.00 0.05 0.03 1017.0
20260905215437 25 25 11.3 19.3 0.00 0.05 0.03 1017.0
20260905214900 25 25 11.3 19.3 0.00 0.05 0.03 1017.0
20260905214034 25 339 12.9 19.3 0.00 0.05 0.03 1016.6
20260905213604 25 0 6.4 19.3 0.00 0.05 0.03 1016.6
20260905212904 25 0 6.4 19.3 0.00 0.05 0.03 1016.6
20260905212034 25 20 12.9 19.3 0.00 0.05 0.03 1016.6
20260905211349 26 52 12.9 20.9 0.00 0.05 0.03 1016.3
20260905210901 26 52 12.9 20.9 0.00 0.05 0.03 1016.3
20260905210034 26 34 14.5 19.3 0.00 0.05 0.03 1016.3
20260905204033 25 30 9.7 16.1 0.00 0.05 0.03 1017.0
20260905202033 25 333 4.8 14.5 0.00 0.05 0.03 1017.0
20260905201353 24 330 8.0 14.5 0.00 0.05 0.03 1017.0
20260905200904 24 330 8.0 14.5 0.00 0.05 0.03 1017.0
20260905200618 25 18 8.0 12.9 0.00 0.05 0.03 1017.0
20260905200035 25 338 11.3 14.5 0.00 0.05 0.03 1017.0
20260905195902 25 18 8.0 12.9 0.00 0.05 0.03 1017.0
20260905195433 25 10 8.0 12.9 0.00 0.05 0.03 1017.0
20260905194900 25 10 8.0 12.9 0.00 0.05 0.03 1017.0
20260905194430 24 4 9.7 14.5 0.00 0.05 0.03 1017.0
20260905194035 25 49 9.7 14.5 0.00 0.05 0.03 1017.3
20260905193904 24 4 9.7 14.5 0.00 0.05 0.03 1017.0
20260905192034 23 14 9.7 17.7 0.00 0.05 0.03 1017.3
20260905190035 24 59 9.7 16.1 0.00 0.05 0.03 1017.0
20260905184921 23 20 11.3 22.5 0.00 0.05 0.03 1017.0
20260905184035 24 46 12.9 20.9 0.00 0.05 0.03 1017.0
20260905182231 23 49 11.3 16.1 0.00 0.05 0.03 1017.3
20260905182034 23 6 11.3 16.1 0.00 0.05 0.03 1017.0
20260905181900 23 49 11.3 16.1 0.00 0.05 0.03 1017.3
20260905180034 23 8 12.9 17.7 0.00 0.05 0.03 1017.3
20260905174034 23 44 8.0 16.1 0.00 0.05 0.03 1017.3
20260905173505 23 25 9.7 14.5 0.00 0.05 0.03 1017.3
20260905172913 23 25 9.7 14.5 0.00 0.05 0.03 1017.3
20260905172034 23 46 6.4 16.1 0.00 0.05 0.03 1017.7
20260905170420 23 8 9.7 19.3 0.00 0.05 0.03 1017.3
20260905170033 23 34 9.7 19.3 0.00 0.05 0.03 1017.3
20260905165921 23 8 9.7 19.3 0.00 0.05 0.03 1017.3
20260905165306 23 145 11.3 16.1 0.00 0.05 0.03 1017.3
20260905164900 23 145 11.3 16.1 0.00 0.05 0.03 1017.3
20260905164329 23 38 9.7 19.3 0.00 0.05 0.03 1017.7
20260905164034 23 359 11.3 19.3 0.00 0.05 0.03 1017.7
20260905163901 23 38 9.7 19.3 0.00 0.05 0.03 1017.7
20260905162338 23 51 11.3 17.7 0.00 0.05 0.03 1017.3
20260905162034 24 45 9.7 17.7 0.00 0.05 0.03 1017.3
20260905161903 23 51 11.3 17.7 0.00 0.05 0.03 1017.3
20260905161442 23 52 9.7 19.3 0.00 0.05 0.03 1017.3